Date String (YYYY-MM-DD hh:mm:ss) UTC,Instrument flags,absolute air pressure of the measurement (hPa),sample flow rate (lpm),inlet stack bypass flow (lpm),air temperature of the measurement (°C),ambient temperature measured by the external sensor (°C),aerosol sample conditioner tube jacket temperature (°C),OPC LED temperature (°C),internal box temperature (°C),relative humidity of the measurement (%),span deviation,mass concentration of particles derived from Lorenz-Mie calculation of OPC scattering (μg/m³),mass concentration of particles derived from Lorenz-Mie calculation of OPC scattering (μg/m³),mass concentration of particles derived from Lorenz-Mie calculation of OPC scattering (μg/m³)
DateTimeUTC,F1_M11,P_M11,Q1_M11,Q2_M11,T1_M11,T2_M11,T3_M11,T4_M11,T5_M11,U1_M11,ZSPAN_M11,X2_M11,X0_M11,X1_M11
2023-07-02 10:00:00,SystemResetWarning,0832.2,5.01,000.00,029.7,025.3,000.0,038.3,030.7,21.4,0000.0,0004.08,0007.82,0003.90
2023-07-02 10:01:00,SystemResetWarning,0832.2,5.01,000.00,029.6,025.7,000.0,038.3,030.7,21.8,0000.0,0004.11,0007.97,0003.91
2023-07-02 10:02:00,SystemResetWarning,0832.2,5.00,000.00,029.5,026.1,000.0,038.3,030.7,22.1,0000.0,0004.14,0007.98,0003.92
2023-07-02 10:03:00,SystemResetWarning,0832.2,4.99,000.00,029.5,026.5,000.0,038.3,030.8,22.2,0000.0,0004.15,0008.45,0003.91
2023-07-02 10:04:00,SystemResetWarning,0832.2,5.00,000.00,029.5,026.8,000.0,038.2,030.8,22.5,0000.0,0004.14,0008.42,0003.91
2023-07-02 10:05:00,SystemResetWarning,0832.2,5.00,000.00,029.5,027.1,000.0,038.2,030.9,22.6,0000.0,0004.15,0008.12,0003.91
2023-07-02 10:06:00,SystemResetWarning,0832.2,5.00,000.00,029.5,027.4,000.0,038.2,030.9,23.2,0000.0,0004.16,0008.17,0003.94
2023-07-02 10:07:00,SystemResetWarning,0832.3,5.00,000.00,029.5,027.5,000.0,038.2,031.0,23.6,0000.0,0004.17,0007.92,0003.94
2023-07-02 10:08:00,SystemResetWarning,0832.2,5.00,000.00,029.5,027.7,000.0,038.2,031.0,23.7,0000.0,0004.18,0008.44,0003.96
2023-07-02 10:09:00,SystemResetWarning,0832.2,5.00,000.00,029.5,027.8,000.0,038.2,031.0,23.2,0000.0,0004.20,0008.66,0003.97
2023-07-02 10:10:00,SystemResetWarning,0832.3,5.00,000.00,029.5,027.9,000.0,038.2,031.0,22.2,0000.0,0004.21,0009.00,0003.99
2023-07-02 10:11:00,SystemResetWarning,0832.2,5.00,000.00,029.5,028.0,000.0,038.2,031.0,21.7,0000.0,0004.20,0009.29,0004.00
2023-07-02 10:12:00,SystemResetWarning,0832.2,5.00,000.00,029.6,028.1,000.0,038.2,031.1,21.5,0000.0,0004.18,0009.12,0004.00
2023-07-02 10:13:00,SystemResetWarning,0832.2,5.00,000.00,029.6,028.1,000.0,038.2,031.1,21.3,0000.0,0004.16,0009.11,0003.99
2023-07-02 10:14:00,SystemResetWarning,0832.2,5.00,000.00,029.6,028.2,000.0,038.2,031.1,21.2,0000.0,0004.15,0008.92,0003.98
2023-07-02 10:15:00,SystemResetWarning,0832.2,5.00,000.00,029.6,028.2,000.0,038.2,031.1,21.1,0000.0,0004.17,0008.88,0003.98
2023-07-02 10:16:00,SystemResetWarning,0832.2,5.00,000.00,029.6,028.3,000.0,038.2,031.2,21.1,0000.0,0004.18,0008.89,0003.97
2023-07-02 10:17:00,SystemResetWarning,0832.2,5.00,000.00,029.6,028.3,000.0,038.2,031.2,21.2,0000.0,0004.16,0008.87,0003.95
2023-07-02 10:18:00,SystemResetWarning,0832.2,5.00,000.00,029.6,028.3,000.0,038.2,031.2,21.2,0000.0,0004.15,0008.89,0003.94
2023-07-02 10:19:00,SystemResetWarning,0832.2,4.99,000.00,029.7,028.4,000.0,038.2,031.2,21.2,0000.0,0004.16,0008.45,0003.93
2023-07-02 10:20:00,SystemResetWarning,0832.3,5.00,000.00,029.7,028.4,000.0,038.2,031.2,21.1,0000.1,0004.16,0008.14,0003.93
2023-07-02 10:21:00,SystemResetWarning,0832.3,4.99,000.00,029.7,028.4,000.0,038.2,031.2,21.2,0000.0,0004.16,0007.77,0003.91
2023-07-02 10:22:00,SystemResetWarning,0832.2,5.00,000.00,029.7,028.4,000.0,038.2,031.2,21.4,0000.0,0004.16,0007.48,0003.89
2023-07-02 10:23:00,SystemResetWarning,0832.2,5.01,000.00,029.7,028.5,000.0,038.2,031.3,21.3,0000.0,0004.17,0008.12,0003.88
2023-07-02 10:24:00,SystemResetWarning,0832.2,5.01,000.00,029.7,028.5,000.0,038.3,031.3,21.4,0000.5,0004.18,0008.13,0003.88
2023-07-02 10:25:00,SystemResetWarning,0832.2,4.99,000.00,029.8,028.5,000.0,038.3,031.3,21.4,0001.1,0004.18,0008.10,0003.89
2023-07-02 10:26:00,SystemResetWarning,0832.2,4.99,000.00,029.8,028.5,000.0,038.3,031.3,21.5,0001.4,0004.19,0007.86,0003.88
2023-07-02 10:27:00,SystemResetWarning,0832.2,4.99,000.00,029.8,028.5,000.0,038.3,031.3,21.3,0001.5,0004.19,0007.85,0003.89
2023-07-02 10:28:00,SystemResetWarning,0832.2,5.01,000.00,029.8,028.5,000.0,038.3,031.3,21.2,0001.5,0004.20,0007.85,0003.89
2023-07-02 10:29:00,SystemResetWarning,0832.2,5.01,000.00,029.8,028.6,000.0,038.3,031.4,21.0,0001.0,0004.19,0007.87,0003.88
2023-07-02 10:30:00,SystemResetWarning,0832.2,4.99,000.00,029.8,028.6,000.0,038.3,031.4,21.9,0000.6,0004.19,0007.90,0003.87
2023-07-02 10:31:00,SystemResetWarning,0832.1,4.99,000.00,029.8,028.6,000.0,038.4,031.4,21.5,0000.5,0004.15,0007.84,0003.84
2023-07-02 10:32:00,SystemResetWarning,0832.1,4.99,000.00,029.9,028.6,000.0,038.4,031.4,21.1,0000.0,0004.13,0008.30,0003.83
2023-07-02 10:33:00,SystemResetWarning,0832.1,5.01,000.00,029.9,028.6,000.0,038.4,031.4,20.7,0000.0,0004.11,0008.25,0003.82
2023-07-02 10:34:00,SystemResetWarning,0832.2,5.00,000.00,029.9,028.6,000.0,038.4,031.4,20.8,0000.0,0004.10,0007.37,0003.81
2023-07-02 10:35:00,SystemResetWarning,0832.1,5.01,000.00,029.9,028.6,000.0,038.4,031.4,20.9,0000.0,0004.08,0007.31,0003.79
2023-07-02 10:36:00,SystemResetWarning,0832.1,5.00,000.00,029.9,028.6,000.0,038.4,031.4,20.9,0000.0,0004.06,0007.27,0003.78
2023-07-02 10:37:00,SystemResetWarning,0832.1,4.99,000.00,029.9,028.6,000.0,038.4,031.4,21.0,0000.0,0004.02,0007.18,0003.77
2023-07-02 10:38:00,SystemResetWarning,0832.0,5.00,000.00,029.9,028.6,000.0,038.4,031.4,21.2,0000.0,0004.00,0007.06,0003.75
2023-07-02 10:39:00,SystemResetWarning,0832.0,5.01,000.00,029.9,028.6,000.0,038.4,031.4,21.5,0000.0,0004.00,0006.97,0003.74
2023-07-02 10:40:00,SystemResetWarning,0832.0,5.01,000.00,029.9,028.6,000.0,038.5,031.4,21.1,0000.0,0003.98,0006.74,0003.73
2023-07-02 10:41:00,SystemResetWarning,0832.0,5.00,000.00,029.9,028.6,000.0,038.5,031.4,20.8,0000.0,0003.96,0006.76,0003.71
2023-07-02 10:42:00,SystemResetWarning,0832.0,5.00,000.00,030.0,028.6,000.0,038.5,031.5,21.0,0000.0,0003.99,0006.82,0003.72
2023-07-02 10:43:00,SystemResetWarning,0832.0,4.99,000.00,030.0,028.7,000.0,038.5,031.5,20.9,0000.0,0003.99,0005.98,0003.74
2023-07-02 10:44:00,SystemResetWarning,0832.0,4.99,000.00,030.0,028.7,000.0,038.5,031.5,20.9,0000.0,0003.99,0005.87,0003.74
2023-07-02 10:45:00,SystemResetWarning,0832.0,5.01,000.00,030.0,028.6,000.0,038.5,031.5,20.8,0000.0,0003.98,0005.90,0003.74
2023-07-02 10:46:00,SystemResetWarning,0832.0,5.01,000.00,030.0,028.6,000.0,038.5,031.5,20.9,0000.0,0003.99,0006.11,0003.74
2023-07-02 10:47:00,SystemResetWarning,0832.1,5.00,000.00,030.0,028.7,000.0,038.5,031.5,20.8,0000.0,0003.97,0006.28,0003.74
2023-07-02 10:48:00,SystemResetWarning,0832.1,4.99,000.00,030.0,028.6,000.0,038.5,031.5,20.7,0000.0,0003.96,0006.24,0003.74
2023-07-02 10:49:00,SystemResetWarning,0832.0,4.99,000.00,030.0,028.6,000.0,038.5,031.5,20.8,0000.0,0003.94,0006.18,0003.74
2023-07-02 10:50:00,SystemResetWarning,0832.0,5.00,000.00,030.0,028.6,000.0,038.6,031.5,20.9,0000.0,0003.93,0006.27,0003.73
2023-07-02 10:51:00,SystemResetWarning,0832.0,5.01,000.00,030.0,028.6,000.0,038.6,031.5,21.1,0000.0,0003.95,0006.36,0003.73
2023-07-02 10:52:00,SystemResetWarning,0832.1,5.00,000.00,030.0,028.6,000.0,038.6,031.5,21.2,0000.0,0003.94,0006.23,0003.73
2023-07-02 10:53:00,SystemResetWarning,0832.0,4.99,000.00,030.0,028.6,000.0,038.6,031.5,21.4,0000.0,0003.92,0006.15,0003.72
2023-07-02 10:54:00,SystemResetWarning,0832.0,4.99,000.00,030.0,028.7,000.0,038.6,031.5,21.4,0000.0,0003.95,0006.28,0003.72
2023-07-02 10:55:00,SystemResetWarning,0832.0,4.99,000.00,030.0,028.7,000.0,038.6,031.5,21.2,0000.0,0003.95,0006.28,0003.72
2023-07-02 10:56:00,SystemResetWarning,0832.0,5.00,000.00,030.0,028.7,000.0,038.6,031.5,21.0,0000.0,0003.94,0006.68,0003.72
2023-07-02 10:57:00,SystemResetWarning,0832.0,5.01,000.00,030.0,028.7,000.0,038.6,031.5,20.7,0000.0,0003.96,0006.60,0003.73
2023-07-02 10:58:00,SystemResetWarning,0832.1,5.00,000.00,030.1,028.7,000.0,038.6,031.5,21.4,-000.0,0003.96,0006.37,0003.73
2023-07-02 10:59:00,SystemResetWarning,0832.1,5.01,000.00,030.1,028.7,000.0,038.6,031.6,22.3,0000.0,0003.98,0006.43,0003.73
